GREB 6

operational
NORAD ID: 1271 Int'l Des: 1965-016 Owner: NRO/NRL Country: US
LEOCIRCULAR

Über GREB 6

Beschreibung wird geladen...

Live-Position

3D-Globus wird geladen...

Nächste Überflüge

Höhenverlauf

Altitude vs Time

uPlot chart will show altitude changes over time

Zweizeiliger Elementsatz

1 01271U 65016A 25340.42120712 .00000125 00000-0 12795-3 0 9997
2 01271 70.0787 209.0745 0022614 317.2911 216.3442 13.96618295 91897
Epoch: 6. Dez. 2025 • Age: 19 hours

Aktueller Status

Höhe 914.2 km
Geschwindigkeit 7.40 km/s
Subsatellitenpunkt -62.57°S, 3.55°E
Typ other

Große Konstellationen

Loading constellations...